Time,TemperatureF,DewpointF,PressureIn,WindDirection,WindDirectionDegrees,WindSpeedMPH,WindSpeedGustMPH,Humidity,HourlyPrecipIn,Conditions,Clouds,dailyrainin,SoftwareType,DateUTC
2013-01-26 00:00:00,3.5,0.5,30.42,NE,51,0.0,0.0,87,0.00,,,0.00,Wunderground v.1.15,2013-01-26 05:00:00,
2013-01-26 00:05:00,2.9,-0.1,30.42,NE,51,0.0,0.0,87,0.00,,,0.00,Wunderground v.1.15,2013-01-26 05:05:00,
2013-01-26 00:10:00,2.3,-0.9,30.42,NE,51,0.0,0.0,86,0.00,,,0.00,Wunderground v.1.15,2013-01-26 05:10:00,
2013-01-26 00:20:00,1.8,-1.2,30.42,NE,51,0.0,0.0,87,0.00,,,0.00,Wunderground v.1.15,2013-01-26 05:20:00,
2013-01-26 00:25:00,1.6,-1.4,30.42,NE,51,0.0,0.0,87,0.00,,,0.00,Wunderground v.1.15,2013-01-26 05:25:00,
2013-01-26 00:30:00,1.2,-1.8,30.42,NE,51,0.0,0.0,87,0.00,,,0.00,Wunderground v.1.15,2013-01-26 05:30:00,
2013-01-26 00:35:00,1.1,-1.9,30.42,NE,51,0.0,0.0,87,0.00,,,0.00,Wunderground v.1.15,2013-01-26 05:35:00,
2013-01-26 00:40:00,0.8,-2.2,30.42,NE,51,0.0,0.0,87,0.00,,,0.00,Wunderground v.1.15,2013-01-26 05:40:00,
2013-01-26 00:45:00,0.7,-2.3,30.42,NE,51,0.0,0.0,87,0.00,,,0.00,Wunderground v.1.15,2013-01-26 05:45:00,
2013-01-26 00:55:00,0.4,-2.6,30.42,NE,51,0.0,1.0,87,0.00,,,0.00,Wunderground v.1.15,2013-01-26 05:55:00,
2013-01-26 01:00:00,-0.8,-4.2,30.42,NE,51,0.0,0.0,85,0.00,,,0.00,Wunderground v.1.15,2013-01-26 06:00:00,
2013-01-26 01:05:00,-1.4,-4.8,30.42,NE,51,0.0,0.0,85,0.00,,,0.00,Wunderground v.1.15,2013-01-26 06:05:00,
2013-01-26 01:10:00,-1.7,-5.1,30.42,NE,51,0.0,0.0,85,0.00,,,0.00,Wunderground v.1.15,2013-01-26 06:10:00,
2013-01-26 01:15:00,-1.7,-4.9,30.43,NE,51,0.0,0.0,86,0.00,,,0.00,Wunderground v.1.15,2013-01-26 06:15:00,
2013-01-26 01:25:00,-2.4,-5.8,30.43,NE,51,0.0,1.0,85,0.00,,,0.00,Wunderground v.1.15,2013-01-26 06:25:00,
2013-01-26 01:30:00,-2.3,-5.5,30.43,NE,51,0.0,0.0,86,0.00,,,0.00,Wunderground v.1.15,2013-01-26 06:30:00,
2013-01-26 01:35:00,-2.4,-5.6,30.43,NE,51,0.0,0.0,86,0.00,,,0.00,Wunderground v.1.15,2013-01-26 06:35:00,
2013-01-26 01:40:00,-2.4,-5.6,30.43,NE,51,0.0,0.0,86,0.00,,,0.00,Wunderground v.1.15,2013-01-26 06:40:00,
2013-01-26 01:45:00,-2.6,-6.0,30.44,NE,51,0.0,0.0,85,0.00,,,0.00,Wunderground v.1.15,2013-01-26 06:45:00,
2013-01-26 01:50:00,-2.6,-5.8,30.44,NE,51,0.0,0.0,86,0.00,,,0.00,Wunderground v.1.15,2013-01-26 06:50:00,
2013-01-26 02:00:00,-3.1,-6.2,30.44,NE,51,0.0,0.0,86,0.00,,,0.00,Wunderground v.1.15,2013-01-26 07:00:00,
2013-01-26 02:05:00,-3.1,-6.5,30.44,NE,51,0.0,0.0,85,0.00,,,0.00,Wunderground v.1.15,2013-01-26 07:05:00,
2013-01-26 02:25:00,-1.2,-3.9,30.44,NE,51,0.0,0.0,88,0.00,,,0.00,Wunderground v.1.15,2013-01-26 07:25:00,
2013-01-26 02:35:00,-0.6,-3.3,30.45,NE,51,0.0,0.0,88,0.00,,,0.00,Wunderground v.1.15,2013-01-26 07:35:00,
2013-01-26 02:40:00,-1.1,-4.0,30.44,NE,51,0.0,0.0,87,0.00,,,0.00,Wunderground v.1.15,2013-01-26 07:40:00,
2013-01-26 02:45:00,-1.2,-4.1,30.45,NE,51,0.0,0.0,87,0.00,,,0.00,Wunderground v.1.15,2013-01-26 07:45:00,
2013-01-26 02:50:00,-1.6,-4.8,30.45,NE,51,0.0,0.0,86,0.00,,,0.00,Wunderground v.1.15,2013-01-26 07:50:00,
2013-01-26 02:55:00,-2.0,-5.2,30.45,NE,51,0.0,0.0,86,0.00,,,0.00,Wunderground v.1.15,2013-01-26 07:55:00,
2013-01-26 03:00:00,-2.7,-6.1,30.45,NE,51,0.0,0.0,85,0.00,,,0.00,Wunderground v.1.15,2013-01-26 08:00:00,
2013-01-26 03:10:00,-3.6,-7.2,30.44,NE,51,0.0,0.0,84,0.00,,,0.00,Wunderground v.1.15,2013-01-26 08:10:00,
2013-01-26 03:15:00,-3.8,-7.2,30.45,NE,51,0.0,1.0,85,0.00,,,0.00,Wunderground v.1.15,2013-01-26 08:15:00,
2013-01-26 03:20:00,-4.3,-7.9,30.45,NE,51,0.0,0.0,84,0.00,,,0.00,Wunderground v.1.15,2013-01-26 08:20:00,
2013-01-26 03:25:00,-4.3,-7.7,30.45,NE,51,0.0,0.0,85,0.00,,,0.00,Wunderground v.1.15,2013-01-26 08:25:00,
2013-01-26 03:30:00,-4.4,-7.8,30.45,NE,51,0.0,0.0,85,0.00,,,0.00,Wunderground v.1.15,2013-01-26 08:30:00,
2013-01-26 03:40:00,-4.6,-8.0,30.45,NE,51,0.0,0.0,85,0.00,,,0.00,Wunderground v.1.15,2013-01-26 08:40:00,
2013-01-26 03:45:00,-4.6,-8.0,30.45,NE,51,0.0,0.0,85,0.00,,,0.00,Wunderground v.1.15,2013-01-26 08:45:00,
2013-01-26 03:50:00,-4.5,-7.9,30.45,NE,51,0.0,0.0,85,0.00,,,0.00,Wunderground v.1.15,2013-01-26 08:50:00,
2013-01-26 03:55:00,-4.5,-7.9,30.45,NE,51,0.0,0.0,85,0.00,,,0.00,Wunderground v.1.15,2013-01-26 08:55:00,
2013-01-26 04:00:00,-4.9,-8.3,30.45,NE,51,0.0,0.0,85,0.00,,,0.00,Wunderground v.1.15,2013-01-26 09:00:00,
2013-01-26 04:05:00,-5.0,-8.4,30.45,NE,51,0.0,1.0,85,0.00,,,0.00,Wunderground v.1.15,2013-01-26 09:05:00,
2013-01-26 04:15:00,-5.3,-8.9,30.45,NE,51,0.0,0.0,84,0.00,,,0.00,Wunderground v.1.15,2013-01-26 09:15:00,
2013-01-26 04:20:00,-5.4,-9.0,30.45,NE,51,0.0,0.0,84,0.00,,,0.00,Wunderground v.1.15,2013-01-26 09:20:00,
2013-01-26 04:25:00,-5.4,-8.7,30.45,NE,51,0.0,1.0,85,0.00,,,0.00,Wunderground v.1.15,2013-01-26 09:25:00,
2013-01-26 04:30:00,-5.3,-8.6,30.46,NE,51,0.0,0.0,85,0.00,,,0.00,Wunderground v.1.15,2013-01-26 09:30:00,
2013-01-26 04:35:00,-5.1,-8.5,30.46,NE,51,0.0,0.0,85,0.00,,,0.00,Wunderground v.1.15,2013-01-26 09:35:00,
2013-01-26 04:45:00,-3.9,-7.0,30.47,NE,51,1.0,1.0,86,0.00,,,0.00,Wunderground v.1.15,2013-01-26 09:45:00,
2013-01-26 04:50:00,-2.5,-5.4,30.47,NE,51,1.0,1.0,87,0.00,,,0.00,Wunderground v.1.15,2013-01-26 09:50:00,
2013-01-26 04:55:00,-2.2,-5.1,30.47,NE,51,1.0,1.0,87,0.00,,,0.00,Wunderground v.1.15,2013-01-26 09:55:00,
2013-01-26 05:00:00,-2.2,-5.4,30.47,NE,51,0.0,1.0,86,0.00,,,0.00,Wunderground v.1.15,2013-01-26 10:00:00,
2013-01-26 05:05:00,-1.9,-4.8,30.47,NE,51,0.0,1.0,87,0.00,,,0.00,Wunderground v.1.15,2013-01-26 10:05:00,
2013-01-26 05:10:00,-1.8,-4.7,30.47,NE,51,0.0,1.0,87,0.00,,,0.00,Wunderground v.1.15,2013-01-26 10:10:00,
2013-01-26 05:20:00,-1.1,-4.0,30.47,NE,51,0.0,0.0,87,0.00,,,0.00,Wunderground v.1.15,2013-01-26 10:20:00,
2013-01-26 05:25:00,-0.4,-3.1,30.47,NE,51,0.0,0.0,88,0.00,,,0.00,Wunderground v.1.15,2013-01-26 10:25:00,
2013-01-26 05:30:00,0.0,-2.7,30.47,NE,51,0.0,0.0,88,0.00,,,0.00,Wunderground v.1.15,2013-01-26 10:30:00,
2013-01-26 05:35:00,0.2,-2.5,30.48,NE,51,0.0,0.0,88,0.00,,,0.00,Wunderground v.1.15,2013-01-26 10:35:00,
2013-01-26 05:40:00,0.4,-2.6,30.48,NE,51,0.0,1.0,87,0.00,,,0.00,Wunderground v.1.15,2013-01-26 10:40:00,
2013-01-26 05:45:00,0.7,-2.3,30.48,NE,51,0.0,1.0,87,0.00,,,0.00,Wunderground v.1.15,2013-01-26 10:45:00,
2013-01-26 05:50:00,1.1,-1.6,30.48,NE,51,0.0,0.0,88,0.00,,,0.00,Wunderground v.1.15,2013-01-26 10:50:00,
2013-01-26 05:55:00,1.3,-1.4,30.49,NE,51,1.0,1.0,88,0.00,,,0.00,Wunderground v.1.15,2013-01-26 10:55:00,
2013-01-26 06:00:00,1.5,-1.5,30.49,NE,51,1.0,1.0,87,0.00,,,0.00,Wunderground v.1.15,2013-01-26 11:00:00,
2013-01-26 06:10:00,1.8,-0.9,30.49,NE,51,0.0,0.0,88,0.00,,,0.00,Wunderground v.1.15,2013-01-26 11:10:00,
2013-01-26 06:20:00,2.3,-0.4,30.49,NE,51,0.0,0.0,88,0.00,,,0.00,Wunderground v.1.15,2013-01-26 11:20:00,
2013-01-26 06:25:00,2.5,-0.2,30.49,NE,51,0.0,0.0,88,0.00,,,0.00,Wunderground v.1.15,2013-01-26 11:25:00,
2013-01-26 06:30:00,2.8,0.1,30.50,NE,51,0.0,0.0,88,0.00,,,0.00,Wunderground v.1.15,2013-01-26 11:30:00,
2013-01-26 06:35:00,3.1,0.3,30.50,NE,51,0.0,0.0,88,0.00,,,0.00,Wunderground v.1.15,2013-01-26 11:35:00,
2013-01-26 06:40:00,3.6,0.8,30.51,NE,51,1.0,1.0,88,0.00,,,0.00,Wunderground v.1.15,2013-01-26 11:40:00,
2013-01-26 06:45:00,3.9,1.1,30.51,NE,51,1.0,1.0,88,0.00,,,0.00,Wunderground v.1.15,2013-01-26 11:45:00,
2013-01-26 06:55:00,4.2,1.4,30.51,NE,51,1.0,2.0,88,0.00,,,0.00,Wunderground v.1.15,2013-01-26 11:55:00,
2013-01-26 07:00:00,4.4,1.6,30.52,NE,51,1.0,1.0,88,0.00,,,0.00,Wunderground v.1.15,2013-01-26 12:00:00,
2013-01-26 07:05:00,4.6,1.8,30.52,NE,51,1.0,2.0,88,0.00,,,0.00,Wunderground v.1.15,2013-01-26 12:05:00,
2013-01-26 07:10:00,4.7,1.9,30.52,NE,51,1.0,2.0,88,0.00,,,0.00,Wunderground v.1.15,2013-01-26 12:10:00,
2013-01-26 07:15:00,4.9,2.1,30.52,NE,51,0.0,2.0,88,0.00,,,0.00,Wunderground v.1.15,2013-01-26 12:15:00,
2013-01-26 07:25:00,5.2,2.4,30.52,NE,51,0.0,2.0,88,0.00,,,0.00,Wunderground v.1.15,2013-01-26 12:25:00,
2013-01-26 07:30:00,5.4,2.6,30.52,NE,51,0.0,2.0,88,0.00,,,0.00,Wunderground v.1.15,2013-01-26 12:30:00,
2013-01-26 07:35:00,5.4,2.6,30.52,NE,51,0.0,2.0,88,0.00,,,0.00,Wunderground v.1.15,2013-01-26 12:35:00,
2013-01-26 07:40:00,5.5,2.7,30.53,NE,51,0.0,2.0,88,0.00,,,0.00,Wunderground v.1.15,2013-01-26 12:40:00,
2013-01-26 07:45:00,5.6,2.8,30.53,NE,51,1.0,2.0,88,0.00,,,0.00,Wunderground v.1.15,2013-01-26 12:45:00,
2013-01-26 07:50:00,5.7,2.9,30.53,NE,51,1.0,2.0,88,0.00,,,0.00,Wunderground v.1.15,2013-01-26 12:50:00,
2013-01-26 08:00:00,6.0,3.2,30.53,NE,51,0.0,2.0,88,0.00,,,0.00,Wunderground v.1.15,2013-01-26 13:00:00,
2013-01-26 08:05:00,6.1,3.6,30.52,NE,51,0.0,2.0,89,0.00,,,0.00,Wunderground v.1.15,2013-01-26 13:05:00,
2013-01-26 08:10:00,6.3,3.5,30.53,NE,51,0.0,2.0,88,0.00,,,0.00,Wunderground v.1.15,2013-01-26 13:10:00,
2013-01-26 08:15:00,6.4,3.9,30.52,NE,51,0.0,2.0,89,0.00,,,0.00,Wunderground v.1.15,2013-01-26 13:15:00,
2013-01-26 08:20:00,6.7,4.1,30.53,NE,51,0.0,2.0,89,0.00,,,0.00,Wunderground v.1.15,2013-01-26 13:20:00,
2013-01-26 08:30:00,7.3,4.7,30.53,NE,51,0.0,2.0,89,0.00,,,0.00,Wunderground v.1.15,2013-01-26 13:30:00,
2013-01-26 08:35:00,7.6,5.0,30.53,NE,51,0.0,2.0,89,0.00,,,0.00,Wunderground v.1.15,2013-01-26 13:35:00,
2013-01-26 08:40:00,7.8,5.2,30.54,NE,51,0.0,2.0,89,0.00,,,0.00,Wunderground v.1.15,2013-01-26 13:40:00,
2013-01-26 08:45:00,8.0,5.4,30.54,NE,51,0.0,2.0,89,0.00,,,0.00,Wunderground v.1.15,2013-01-26 13:45:00,
2013-01-26 08:50:00,8.3,5.7,30.54,NE,51,0.0,2.0,89,0.00,,,0.00,Wunderground v.1.15,2013-01-26 13:50:00,
2013-01-26 08:55:00,8.6,6.3,30.54,NE,51,0.0,2.0,90,0.00,,,0.00,Wunderground v.1.15,2013-01-26 13:55:00,
2013-01-26 09:05:00,9.4,7.1,30.54,NE,51,0.0,2.0,90,0.00,,,0.00,Wunderground v.1.15,2013-01-26 14:05:00,
2013-01-26 09:10:00,9.6,7.0,30.55,NE,51,1.0,2.0,89,0.00,,,0.00,Wunderground v.1.15,2013-01-26 14:10:00,
2013-01-26 09:15:00,9.6,7.0,30.55,NE,51,1.0,2.0,89,0.00,,,0.00,Wunderground v.1.15,2013-01-26 14:15:00,
2013-01-26 09:20:00,9.7,7.1,30.55,NE,51,1.0,2.0,89,0.00,,,0.00,Wunderground v.1.15,2013-01-26 14:20:00,
2013-01-26 09:25:00,9.8,7.2,30.56,NE,51,2.0,2.0,89,0.00,,,0.00,Wunderground v.1.15,2013-01-26 14:25:00,
2013-01-26 09:35:00,10.5,7.9,30.56,NE,51,0.0,2.0,89,0.00,,,0.00,Wunderground v.1.15,2013-01-26 14:35:00,
2013-01-26 09:40:00,11.0,8.6,30.56,NE,51,0.0,2.0,90,0.00,,,0.00,Wunderground v.1.15,2013-01-26 14:40:00,
2013-01-26 09:45:00,11.7,9.3,30.57,NE,51,0.0,2.0,90,0.00,,,0.00,Wunderground v.1.15,2013-01-26 14:45:00,
2013-01-26 09:50:00,12.1,9.7,30.57,NE,51,0.0,2.0,90,0.00,,,0.00,Wunderground v.1.15,2013-01-26 14:50:00,
2013-01-26 09:55:00,12.2,9.6,30.57,NE,51,0.0,2.0,89,0.00,,,0.00,Wunderground v.1.15,2013-01-26 14:55:00,
2013-01-26 10:00:00,12.4,9.8,30.57,NE,51,0.0,2.0,89,0.00,,,0.00,Wunderground v.1.15,2013-01-26 15:00:00,
2013-01-26 10:10:00,13.3,10.9,30.57,NE,51,0.0,2.0,90,0.00,,,0.00,Wunderground v.1.15,2013-01-26 15:10:00,
2013-01-26 10:15:00,14.3,11.7,30.57,NE,51,0.0,2.0,89,0.00,,,0.00,Wunderground v.1.15,2013-01-26 15:15:00,
2013-01-26 10:20:00,14.8,12.1,30.57,NE,51,1.0,2.0,89,0.00,,,0.00,Wunderground v.1.15,2013-01-26 15:20:00,
2013-01-26 10:25:00,15.4,12.2,30.57,NE,51,1.0,2.0,87,0.00,,,0.00,Wunderground v.1.15,2013-01-26 15:25:00,
2013-01-26 10:30:00,15.3,11.3,30.57,NE,51,2.0,3.0,84,0.00,,,0.00,Wunderground v.1.15,2013-01-26 15:30:00,
2013-01-26 10:40:00,15.8,11.6,30.57,South,186,2.0,4.0,83,0.00,,,0.00,Wunderground v.1.15,2013-01-26 15:40:00,
2013-01-26 10:45:00,16.0,11.5,30.57,South,184,2.0,4.0,82,0.00,,,0.00,Wunderground v.1.15,2013-01-26 15:45:00,
2013-01-26 10:50:00,15.9,10.8,30.57,South,171,3.0,5.0,80,0.00,,,0.00,Wunderground v.1.15,2013-01-26 15:50:00,
2013-01-26 10:55:00,15.6,10.5,30.56,South,188,4.0,5.0,80,0.00,,,0.00,Wunderground v.1.15,2013-01-26 15:55:00,
2013-01-26 11:00:00,15.6,10.5,30.57,South,183,4.0,4.0,80,0.00,,,0.00,Wunderground v.1.15,2013-01-26 16:00:00,
2013-01-26 11:05:00,15.9,10.8,30.57,SSW,192,3.0,4.0,80,0.00,,,0.00,Wunderground v.1.15,2013-01-26 16:05:00,
2013-01-26 11:10:00,15.7,10.3,30.56,SSW,207,4.0,6.0,79,0.00,,,0.00,Wunderground v.1.15,2013-01-26 16:10:00,
2013-01-26 11:15:00,15.7,10.6,30.56,SSW,197,4.0,6.0,80,0.00,,,0.00,Wunderground v.1.15,2013-01-26 16:15:00,
2013-01-26 11:20:00,15.9,10.8,30.56,South,171,3.0,5.0,80,0.00,,,0.00,Wunderground v.1.15,2013-01-26 16:20:00,
2013-01-26 11:25:00,16.1,10.7,30.56,South,174,3.0,5.0,79,0.00,,,0.00,Wunderground v.1.15,2013-01-26 16:25:00,
2013-01-26 11:30:00,16.2,10.8,30.56,SW,215,3.0,3.0,79,0.00,,,0.00,Wunderground v.1.15,2013-01-26 16:30:00,
2013-01-26 11:35:00,16.4,11.0,30.56,SE,138,2.0,3.0,79,0.00,,,0.00,Wunderground v.1.15,2013-01-26 16:35:00,
2013-01-26 11:45:00,16.2,10.5,30.56,SSE,152,3.0,6.0,78,0.00,,,0.00,Wunderground v.1.15,2013-01-26 16:45:00,
2013-01-26 11:50:00,16.2,10.5,30.56,SSE,152,4.0,4.0,78,0.00,,,0.00,Wunderground v.1.15,2013-01-26 16:50:00,
2013-01-26 11:55:00,16.7,11.0,30.56,SSE,152,4.0,4.0,78,0.00,,,0.00,Wunderground v.1.15,2013-01-26 16:55:00,
2013-01-26 12:00:00,17.1,11.4,30.56,SSE,160,2.0,2.0,78,0.00,,,0.00,Wunderground v.1.15,2013-01-26 17:00:00,
2013-01-26 12:10:00,17.9,12.2,30.57,SSE,160,1.0,1.0,78,0.00,,,0.00,Wunderground v.1.15,2013-01-26 17:10:00,
2013-01-26 12:15:00,18.3,12.6,30.57,SSE,160,1.0,2.0,78,0.00,,,0.00,Wunderground v.1.15,2013-01-26 17:15:00,
2013-01-26 12:20:00,18.0,11.7,30.57,SSE,160,1.0,3.0,76,0.00,,,0.00,Wunderground v.1.15,2013-01-26 17:20:00,
2013-01-26 12:25:00,17.7,11.4,30.57,WSW,251,2.0,3.0,76,0.00,,,0.00,Wunderground v.1.15,2013-01-26 17:25:00,
2013-01-26 12:30:00,17.8,11.5,30.57,WSW,251,2.0,2.0,76,0.00,,,0.00,Wunderground v.1.15,2013-01-26 17:30:00,
2013-01-26 12:35:00,18.0,12.0,30.57,WSW,251,1.0,2.0,77,0.00,,,0.00,Wunderground v.1.15,2013-01-26 17:35:00,
2013-01-26 12:40:00,18.0,11.7,30.57,SW,228,2.0,3.0,76,0.00,,,0.00,Wunderground v.1.15,2013-01-26 17:40:00,
2013-01-26 12:50:00,18.2,11.9,30.57,SW,228,3.0,3.0,76,0.00,,,0.00,Wunderground v.1.15,2013-01-26 17:50:00,
2013-01-26 12:55:00,18.6,12.3,30.57,SW,228,2.0,3.0,76,0.00,,,0.00,Wunderground v.1.15,2013-01-26 17:55:00,
2013-01-26 13:00:00,18.8,12.5,30.57,SW,230,2.0,2.0,76,0.00,,,0.00,Wunderground v.1.15,2013-01-26 18:00:00,
2013-01-26 13:05:00,19.2,12.9,30.57,SW,230,2.0,8.0,76,0.00,,,0.00,Wunderground v.1.15,2013-01-26 18:05:00,
2013-01-26 13:10:00,19.4,12.8,30.57,WSW,246,2.0,8.0,75,0.00,,,0.00,Wunderground v.1.15,2013-01-26 18:10:00,
2013-01-26 13:15:00,19.1,12.2,30.57,WNW,303,3.0,8.0,74,0.00,,,0.00,Wunderground v.1.15,2013-01-26 18:15:00,
2013-01-26 13:25:00,19.0,12.4,30.58,West,259,4.0,6.0,75,0.00,,,0.00,Wunderground v.1.15,2013-01-26 18:25:00,
2013-01-26 13:30:00,19.2,12.3,30.58,West,265,4.0,4.0,74,0.00,,,0.00,Wunderground v.1.15,2013-01-26 18:30:00,
2013-01-26 13:35:00,19.5,12.9,30.58,WNW,292,4.0,5.0,75,0.00,,,0.00,Wunderground v.1.15,2013-01-26 18:35:00,
2013-01-26 13:40:00,19.5,12.6,30.58,West,271,4.0,8.0,74,0.00,,,0.00,Wunderground v.1.15,2013-01-26 18:40:00,
2013-01-26 13:45:00,19.5,12.6,30.58,WNW,298,4.0,8.0,74,0.00,,,0.00,Wunderground v.1.15,2013-01-26 18:45:00,
2013-01-26 13:50:00,19.6,12.3,30.58,WNW,303,5.0,5.0,73,0.00,,,0.00,Wunderground v.1.15,2013-01-26 18:50:00,
2013-01-26 13:55:00,19.8,11.9,30.58,West,281,6.0,6.0,71,0.00,,,0.00,Wunderground v.1.15,2013-01-26 18:55:00,
2013-01-26 14:00:00,19.9,12.3,30.58,WNW,284,5.0,5.0,72,0.00,,,0.00,Wunderground v.1.15,2013-01-26 19:00:00,
2013-01-26 14:05:00,19.9,12.3,30.58,WNW,295,5.0,8.0,72,0.00,,,0.00,Wunderground v.1.15,2013-01-26 19:05:00,
2013-01-26 14:10:00,20.0,12.1,30.58,WNW,300,5.0,8.0,71,0.00,,,0.00,Wunderground v.1.15,2013-01-26 19:10:00,
2013-01-26 14:15:00,19.9,11.7,30.58,WNW,284,6.0,8.0,70,0.00,,,0.00,Wunderground v.1.15,2013-01-26 19:15:00,
2013-01-26 14:25:00,19.9,11.7,30.58,WNW,300,7.0,9.0,70,0.00,,,0.00,Wunderground v.1.15,2013-01-26 19:25:00,
2013-01-26 14:30:00,19.8,11.3,30.58,West,278,6.0,6.0,69,0.00,,,0.00,Wunderground v.1.15,2013-01-26 19:30:00,
2013-01-26 14:40:00,20.0,11.5,30.58,WNW,294,6.0,6.0,69,0.00,,,0.00,Wunderground v.1.15,2013-01-26 19:40:00,
2013-01-26 14:45:00,20.2,11.7,30.59,WNW,292,6.0,8.0,69,0.00,,,0.00,Wunderground v.1.15,2013-01-26 19:45:00,
2013-01-26 14:50:00,20.1,11.2,30.59,WNW,296,6.0,8.0,68,0.00,,,0.00,Wunderground v.1.15,2013-01-26 19:50:00,
2013-01-26 14:55:00,20.0,11.1,30.59,WNW,300,6.0,8.0,68,0.00,,,0.00,Wunderground v.1.15,2013-01-26 19:55:00,
2013-01-26 15:00:00,20.2,11.3,30.59,WNW,289,6.0,8.0,68,0.00,,,0.00,Wunderground v.1.15,2013-01-26 20:00:00,
2013-01-26 15:05:00,20.5,11.6,30.59,WNW,294,6.0,8.0,68,0.00,,,0.00,Wunderground v.1.15,2013-01-26 20:05:00,
2013-01-26 15:10:00,20.7,12.1,30.59,WNW,289,6.0,10.0,69,0.00,,,0.00,Wunderground v.1.15,2013-01-26 20:10:00,
2013-01-26 15:15:00,20.6,11.4,30.60,WNW,302,7.0,10.0,67,0.00,,,0.00,Wunderground v.1.15,2013-01-26 20:15:00,
2013-01-26 15:20:00,20.6,11.4,30.60,West,275,7.0,7.0,67,0.00,,,0.00,Wunderground v.1.15,2013-01-26 20:20:00,
2013-01-26 15:30:00,20.3,11.1,30.60,WNW,298,7.0,7.0,67,0.00,,,0.00,Wunderground v.1.15,2013-01-26 20:30:00,
2013-01-26 15:35:00,20.4,11.2,30.60,WNW,298,6.0,8.0,67,0.00,,,0.00,Wunderground v.1.15,2013-01-26 20:35:00,
2013-01-26 15:40:00,20.4,11.2,30.60,WNW,294,6.0,8.0,67,0.00,,,0.00,Wunderground v.1.15,2013-01-26 20:40:00,
2013-01-26 15:45:00,20.3,11.1,30.60,WNW,293,6.0,8.0,67,0.00,,,0.00,Wunderground v.1.15,2013-01-26 20:45:00,
2013-01-26 15:50:00,20.2,11.0,30.60,WNW,289,6.0,6.0,67,0.00,,,0.00,Wunderground v.1.15,2013-01-26 20:50:00,
2013-01-26 15:55:00,20.2,11.3,30.60,WNW,292,6.0,8.0,68,0.00,,,0.00,Wunderground v.1.15,2013-01-26 20:55:00,
2013-01-26 16:05:00,20.0,11.1,30.60,WNW,298,6.0,8.0,68,0.00,,,0.00,Wunderground v.1.15,2013-01-26 21:05:00,
2013-01-26 16:10:00,20.1,11.2,30.61,WNW,296,5.0,5.0,68,0.00,,,0.00,Wunderground v.1.15,2013-01-26 21:10:00,
2013-01-26 16:15:00,20.0,11.5,30.61,West,273,5.0,8.0,69,0.00,,,0.00,Wunderground v.1.15,2013-01-26 21:15:00,
2013-01-26 16:20:00,19.9,11.4,30.61,WNW,294,5.0,5.0,69,0.00,,,0.00,Wunderground v.1.15,2013-01-26 21:20:00,
2013-01-26 16:25:00,19.9,11.4,30.61,WNW,288,5.0,8.0,69,0.00,,,0.00,Wunderground v.1.15,2013-01-26 21:25:00,
2013-01-26 16:35:00,19.7,11.5,30.61,WNW,285,4.0,6.0,70,0.00,,,0.00,Wunderground v.1.15,2013-01-26 21:35:00,
2013-01-26 16:40:00,19.7,11.2,30.62,WNW,285,4.0,8.0,69,0.00,,,0.00,Wunderground v.1.15,2013-01-26 21:40:00,
2013-01-26 16:45:00,19.6,11.1,30.62,WNW,285,3.0,8.0,69,0.00,,,0.00,Wunderground v.1.15,2013-01-26 21:45:00,
2013-01-26 16:50:00,19.5,11.3,30.62,WNW,285,3.0,8.0,70,0.00,,,0.00,Wunderground v.1.15,2013-01-26 21:50:00,
2013-01-26 16:55:00,19.4,11.2,30.63,WNW,285,3.0,8.0,70,0.00,,,0.00,Wunderground v.1.15,2013-01-26 21:55:00,
2013-01-26 17:00:00,19.2,11.3,30.63,WNW,285,2.0,8.0,71,0.00,,,0.00,Wunderground v.1.15,2013-01-26 22:00:00,
2013-01-26 17:10:00,18.9,11.4,30.63,WNW,285,1.0,1.0,72,0.00,,,0.00,Wunderground v.1.15,2013-01-26 22:10:00,
2013-01-26 17:15:00,18.6,11.4,30.63,WNW,285,1.0,8.0,73,0.00,,,0.00,Wunderground v.1.15,2013-01-26 22:15:00,
2013-01-26 17:20:00,18.4,11.5,30.63,WNW,285,1.0,8.0,74,0.00,,,0.00,Wunderground v.1.15,2013-01-26 22:20:00,
2013-01-26 17:25:00,18.3,11.4,30.63,WNW,285,1.0,8.0,74,0.00,,,0.00,Wunderground v.1.15,2013-01-26 22:25:00,
2013-01-26 17:30:00,18.0,11.1,30.64,WNW,285,0.0,8.0,74,0.00,,,0.00,Wunderground v.1.15,2013-01-26 22:30:00,
2013-01-26 17:40:00,18.0,11.4,30.64,WNW,285,0.0,8.0,75,0.00,,,0.00,Wunderground v.1.15,2013-01-26 22:40:00,
2013-01-26 17:45:00,17.9,11.3,30.64,WNW,285,0.0,8.0,75,0.00,,,0.00,Wunderground v.1.15,2013-01-26 22:45:00,
2013-01-26 17:50:00,17.6,11.0,30.64,WNW,285,0.0,8.0,75,0.00,,,0.00,Wunderground v.1.15,2013-01-26 22:50:00,
2013-01-26 17:55:00,17.0,10.4,30.64,WNW,285,0.0,8.0,75,0.00,,,0.00,Wunderground v.1.15,2013-01-26 22:55:00,
2013-01-26 18:00:00,16.6,10.3,30.64,WNW,285,0.0,0.0,76,0.00,,,0.00,Wunderground v.1.15,2013-01-26 23:00:00,
2013-01-26 18:10:00,15.5,9.3,30.64,WNW,285,0.0,0.0,76,0.00,,,0.00,Wunderground v.1.15,2013-01-26 23:10:00,
2013-01-26 18:15:00,15.0,9.1,30.65,WNW,285,0.0,0.0,77,0.00,,,0.00,Wunderground v.1.15,2013-01-26 23:15:00,
2013-01-26 18:20:00,14.5,8.6,30.65,WNW,285,0.0,0.0,77,0.00,,,0.00,Wunderground v.1.15,2013-01-26 23:20:00,
2013-01-26 18:25:00,14.0,8.4,30.65,WNW,285,0.0,0.0,78,0.00,,,0.00,Wunderground v.1.15,2013-01-26 23:25:00,
2013-01-26 18:30:00,13.6,8.0,30.65,WNW,285,0.0,0.0,78,0.00,,,0.00,Wunderground v.1.15,2013-01-26 23:30:00,
2013-01-26 18:35:00,13.4,8.1,30.65,WNW,285,0.0,0.0,79,0.00,,,0.00,Wunderground v.1.15,2013-01-26 23:35:00,
2013-01-26 18:45:00,12.8,7.8,30.66,WNW,285,0.0,0.0,80,0.00,,,0.00,Wunderground v.1.15,2013-01-26 23:45:00,
2013-01-26 18:50:00,12.5,7.8,30.66,WNW,285,0.0,0.0,81,0.00,,,0.00,Wunderground v.1.15,2013-01-26 23:50:00,
2013-01-26 18:55:00,12.2,7.5,30.66,WNW,285,0.0,0.0,81,0.00,,,0.00,Wunderground v.1.15,2013-01-26 23:55:00,
2013-01-26 19:00:00,11.9,7.5,30.66,WNW,285,0.0,1.0,82,0.00,,,0.00,Wunderground v.1.15,2013-01-27 00:00:00,
2013-01-26 19:05:00,11.7,7.3,30.66,WNW,285,0.0,1.0,82,0.00,,,0.00,Wunderground v.1.15,2013-01-27 00:05:00,
2013-01-26 19:10:00,11.6,7.4,30.66,WNW,285,0.0,1.0,83,0.00,,,0.00,Wunderground v.1.15,2013-01-27 00:10:00,
2013-01-26 19:15:00,11.4,7.2,30.66,WNW,285,0.0,1.0,83,0.00,,,0.00,Wunderground v.1.15,2013-01-27 00:15:00,
2013-01-26 19:20:00,11.1,6.9,30.67,WNW,285,0.0,1.0,83,0.00,,,0.00,Wunderground v.1.15,2013-01-27 00:20:00,
2013-01-26 19:25:00,10.8,6.7,30.67,WNW,285,0.0,1.0,83,0.00,,,0.00,Wunderground v.1.15,2013-01-27 00:25:00,
2013-01-26 19:30:00,10.8,7.2,30.67,WNW,285,0.0,1.0,85,0.00,,,0.00,Wunderground v.1.15,2013-01-27 00:30:00,
2013-01-26 19:35:00,10.9,7.3,30.67,WNW,285,0.0,1.0,85,0.00,,,0.00,Wunderground v.1.15,2013-01-27 00:35:00,
2013-01-26 19:40:00,10.7,7.1,30.67,WNW,285,0.0,1.0,85,0.00,,,0.00,Wunderground v.1.15,2013-01-27 00:40:00,
2013-01-26 19:50:00,10.1,6.5,30.67,WNW,285,0.0,1.0,85,0.00,,,0.00,Wunderground v.1.15,2013-01-27 00:50:00,
2013-01-26 19:55:00,9.9,6.3,30.67,WNW,285,0.0,1.0,85,0.00,,,0.00,Wunderground v.1.15,2013-01-27 00:55:00,
2013-01-26 20:00:00,10.0,6.6,30.67,WNW,285,0.0,1.0,86,0.00,,,0.00,Wunderground v.1.15,2013-01-27 01:00:00,
2013-01-26 20:05:00,10.0,6.6,30.67,WNW,285,0.0,1.0,86,0.00,,,0.00,Wunderground v.1.15,2013-01-27 01:05:00,
2013-01-26 20:10:00,10.0,6.9,30.67,WNW,285,0.0,1.0,87,0.00,,,0.00,Wunderground v.1.15,2013-01-27 01:10:00,
2013-01-26 20:20:00,10.7,7.8,30.67,WNW,285,0.0,1.0,88,0.00,,,0.00,Wunderground v.1.15,2013-01-27 01:20:00,
2013-01-26 20:25:00,10.8,7.7,30.68,WNW,285,0.0,1.0,87,0.00,,,0.00,Wunderground v.1.15,2013-01-27 01:25:00,
2013-01-26 20:30:00,11.0,8.1,30.68,WNW,285,0.0,1.0,88,0.00,,,0.00,Wunderground v.1.15,2013-01-27 01:30:00,
2013-01-26 20:35:00,11.0,7.9,30.68,WNW,285,0.0,1.0,87,0.00,,,0.00,Wunderground v.1.15,2013-01-27 01:35:00,
2013-01-26 20:40:00,11.2,8.3,30.68,WNW,285,1.0,1.0,88,0.00,,,0.00,Wunderground v.1.15,2013-01-27 01:40:00,
2013-01-26 20:45:00,11.2,8.3,30.68,WNW,285,1.0,1.0,88,0.00,,,0.00,Wunderground v.1.15,2013-01-27 01:45:00,
2013-01-26 20:55:00,10.2,6.8,30.69,WNW,285,1.0,1.0,86,0.00,,,0.00,Wunderground v.1.15,2013-01-27 01:55:00,
2013-01-26 21:00:00,9.6,6.0,30.69,WNW,285,0.0,1.0,85,0.00,,,0.00,Wunderground v.1.15,2013-01-27 02:00:00,
2013-01-26 21:05:00,9.5,6.2,30.69,WNW,285,0.0,1.0,86,0.00,,,0.00,Wunderground v.1.15,2013-01-27 02:05:00,
2013-01-26 21:10:00,9.7,6.6,30.69,WNW,285,0.0,1.0,87,0.00,,,0.00,Wunderground v.1.15,2013-01-27 02:10:00,
2013-01-26 21:15:00,10.2,7.4,30.69,WNW,285,0.0,1.0,88,0.00,,,0.00,Wunderground v.1.15,2013-01-27 02:15:00,
2013-01-26 21:25:00,11.2,8.3,30.69,WNW,285,1.0,1.0,88,0.00,,,0.00,Wunderground v.1.15,2013-01-27 02:25:00,
2013-01-26 21:30:00,11.7,9.1,30.69,WNW,285,1.0,1.0,89,0.00,,,0.00,Wunderground v.1.15,2013-01-27 02:30:00,
2013-01-26 21:35:00,12.0,9.1,30.69,WNW,285,0.0,1.0,88,0.00,,,0.00,Wunderground v.1.15,2013-01-27 02:35:00,
2013-01-26 21:40:00,11.8,8.7,30.69,WNW,285,0.0,1.0,87,0.00,,,0.00,Wunderground v.1.15,2013-01-27 02:40:00,
2013-01-26 21:45:00,11.7,8.6,30.69,WNW,285,1.0,3.0,87,0.00,,,0.00,Wunderground v.1.15,2013-01-27 02:45:00,
2013-01-26 21:50:00,11.8,8.7,30.69,WNW,285,2.0,3.0,87,0.00,,,0.00,Wunderground v.1.15,2013-01-27 02:50:00,
2013-01-26 22:00:00,11.7,8.3,30.70,WNW,285,2.0,2.0,86,0.00,,,0.00,Wunderground v.1.15,2013-01-27 03:00:00,
2013-01-26 22:05:00,11.5,8.1,30.70,WNW,285,1.0,2.0,86,0.00,,,0.00,Wunderground v.1.15,2013-01-27 03:05:00,
2013-01-26 22:10:00,11.3,7.9,30.70,WNW,285,0.0,1.0,86,0.00,,,0.00,Wunderground v.1.15,2013-01-27 03:10:00,
2013-01-26 22:15:00,11.1,7.5,30.70,WNW,285,0.0,1.0,85,0.00,,,0.00,Wunderground v.1.15,2013-01-27 03:15:00,
2013-01-26 22:20:00,10.8,7.2,30.70,WNW,285,0.0,1.0,85,0.00,,,0.00,Wunderground v.1.15,2013-01-27 03:20:00,
2013-01-26 22:30:00,10.3,6.9,30.70,WNW,285,0.0,1.0,86,0.00,,,0.00,Wunderground v.1.15,2013-01-27 03:30:00,
2013-01-26 22:35:00,10.3,6.9,30.70,WNW,285,0.0,1.0,86,0.00,,,0.00,Wunderground v.1.15,2013-01-27 03:35:00,
2013-01-26 22:40:00,10.3,6.9,30.70,WNW,285,0.0,1.0,86,0.00,,,0.00,Wunderground v.1.15,2013-01-27 03:40:00,
2013-01-26 22:45:00,10.3,6.9,30.71,WNW,285,0.0,1.0,86,0.00,,,0.00,Wunderground v.1.15,2013-01-27 03:45:00,
2013-01-26 22:50:00,10.3,6.9,30.71,WNW,285,0.0,1.0,86,0.00,,,0.00,Wunderground v.1.15,2013-01-27 03:50:00,
2013-01-26 22:55:00,10.4,7.0,30.71,WNW,285,0.0,1.0,86,0.00,,,0.00,Wunderground v.1.15,2013-01-27 03:55:00,
2013-01-26 23:00:00,10.5,7.1,30.71,WNW,285,0.0,1.0,86,0.00,,,0.00,Wunderground v.1.15,2013-01-27 04:00:00,
2013-01-26 23:05:00,9.9,6.3,30.71,WNW,285,0.0,1.0,85,0.00,,,0.00,Wunderground v.1.15,2013-01-27 04:05:00,
2013-01-26 23:10:00,9.4,5.8,30.71,WNW,285,0.0,1.0,85,0.00,,,0.00,Wunderground v.1.15,2013-01-27 04:10:00,
2013-01-26 23:15:00,8.8,5.0,30.71,WNW,285,0.0,1.0,84,0.00,,,0.00,Wunderground v.1.15,2013-01-27 04:15:00,
2013-01-26 23:20:00,8.4,4.8,30.71,WNW,285,0.0,1.0,85,0.00,,,0.00,Wunderground v.1.15,2013-01-27 04:20:00,
2013-01-26 23:25:00,8.3,5.0,30.71,WNW,285,0.0,1.0,86,0.00,,,0.00,Wunderground v.1.15,2013-01-27 04:25:00,
2013-01-26 23:35:00,8.1,4.8,30.72,WNW,285,0.0,1.0,86,0.00,,,0.00,Wunderground v.1.15,2013-01-27 04:35:00,
2013-01-26 23:40:00,8.1,4.8,30.72,WNW,285,0.0,1.0,86,0.00,,,0.00,Wunderground v.1.15,2013-01-27 04:40:00,
2013-01-26 23:45:00,8.7,5.6,30.72,WNW,285,0.0,1.0,87,0.00,,,0.00,Wunderground v.1.15,2013-01-27 04:45:00,
2013-01-26 23:50:00,9.5,6.7,30.72,WNW,285,0.0,1.0,88,0.00,,,0.00,Wunderground v.1.15,2013-01-27 04:50:00,
2013-01-26 23:55:00,10.0,6.9,30.72,WNW,285,1.0,2.0,87,0.00,,,0.00,Wunderground v.1.15,2013-01-27 04:55:00,